Starlink 11555

operational
NORAD ID: 62915 Int'l Des: 2025-027 Owner: SPXS Country: US Constellation: starlink
LEOCIRCULAR

Starlink 11555について

説明を読み込み中...

リアルタイム位置

3D地球を読み込み中...

次回通過

高度履歴

Altitude vs Time

uPlot chart will show altitude changes over time

軌道要素

1 62915U 25027J 26034.44748048 .00243051 00000-0 18300-2 0 9992
2 62915 42.9988 194.3386 0007045 292.0585 67.9534 15.70983923 57807
Epoch: Feb 3, 2026 • Age: 17 hours

現在のステータス

高度 361.7 km
速度 7.70 km/s
衛星直下点 37.38°N, 120.81°E
打ち上げ日 Feb 8, 2025
運用期間 0.9 years
タイプ internet

技術仕様

分類 Payload
質量 960.00 kg
乾燥質量 910.00 kg
総質量 960.00 kg
長さ 0.30 m
直径 4.10 m
スパン 29.00 m
形状 Box + pan
製造者 SPXS
バスタイプ Starlink V2MD
フェーズステータス In Orbit
所有者/国 SPXS/US

大規模コンステレーション

Loading constellations...